Flag for Pakistan Weather past 2 weeks in Lahore, Pakistan

Now
93 °F

Scattered clouds.


Feels Like: 105 °F
Forecast: 78 / 100 °F
Wind: 7 mph from West

Location: Lahore Airport

Current Time: Sep 1, 2015 at 11:12:34 AM

Latest Report: Sep 1, 2015 at 11:00 AM


Visibility: 4 mi

Pressure: 29.62 "Hg

Humidity: 56%

Dew point: 75 °F

Location of LahoreLocation

Historic Weather in Lahore — Graph

°F

Lahore temperature yesterday

Maximum temperature yesterday: 100 °F (at 1:55 PM)
Minimum temperature yesterday: 77 °F (at 4:55 AM)
Average temperature yesterday: 90 °F

Past Weeks' High & Low Weather Summary

 TemperatureHumidityPressure
High100 °F (Aug 17, 1:55 PM)100% (Aug 21, 2:25 PM)29.71 "Hg (Aug 21, 2:25 PM)
Low73 °F (Aug 21, 11:55 PM)26% (Aug 18, 6:25 AM)29.50 "Hg (Aug 20, 5:25 PM)
Average88 °F68%29.61 "Hg
* Reported Aug 17 10:25 AM — Sep 1 10:00 AM, Lahore, Weather by CustomWeather, © 2015

Note: Actual official high and low records may vary slightly from our data, if they occured in-between our weather recording intervals... More about our weather records

Advertising

Lahore weather history for previous 24 hours

 ConditionsComfort  
Time TempWeatherWind HumidityBarometerVisibility
10:00 AM
Tue, Sep 1
91 °FScattered clouds.5 mph63%29.62 "Hg3 mi
8:25 AM88 °FClear.7 mph70%29.59 "Hg2 mi
7:55 AM86 °FClear.5 mph75%29.59 "Hg2 mi
7:25 AM84 °FClear.No wind70%29.59 "Hg2 mi
6:55 AM82 °FClear.No wind74%29.59 "Hg2 mi
6:25 AM82 °FClear.3 mph74%29.59 "Hg2 mi
5:55 AM81 °FClear.No wind79%29.59 "Hg2 mi
4:55 AM81 °FClear.No wind79%29.59 "Hg2 mi
4:25 AM82 °FClear.No wind74%29.59 "Hg2 mi
3:55 AM82 °FClear.No wind74%29.59 "Hg2 mi
2:55 AM84 °FClear.3 mph70%29.59 "Hg2 mi
2:25 AM84 °FPassing clouds.3 mph70%29.59 "Hg2 mi
1:55 AM84 °FPassing clouds.No wind70%29.59 "Hg2 mi
1:25 AM84 °FPassing clouds.3 mph70%29.59 "Hg2 mi
12:55 AM86 °FPassing clouds.5 mph66%29.59 "Hg2 mi
12:25 AM86 °FPassing clouds.3 mph70%29.62 "Hg2 mi
11:55 PM
Mon, Aug 31
86 °FPassing clouds.No wind70%29.62 "Hg2 mi
11:25 PM86 °FPassing clouds.No wind70%29.62 "Hg2 mi
10:55 PM86 °FClear.No wind70%29.62 "Hg2 mi
10:25 PM88 °FClear.No wind62%29.62 "Hg3 mi
9:55 PM88 °FClear.5 mph62%29.62 "Hg3 mi
9:25 PM90 °FClear.3 mph59%29.62 "Hg3 mi
8:55 PM90 °FClear.3 mph59%29.62 "Hg3 mi
8:25 PM91 °FClear.5 mph56%29.71 "Hg3 mi
7:55 PM91 °FClear.5 mph56%29.62 "Hg3 mi
7:25 PM91 °FClear.5 mph56%29.62 "Hg3 mi
6:55 PM93 °FClear.5 mph53%29.62 "Hg3 mi
6:25 PM93 °FClear.7 mph53%29.59 "Hg3 mi
5:55 PM95 °FClear.7 mph47%29.62 "Hg4 mi
5:25 PM95 °FPassing clouds.7 mph47%29.62 "Hg4 mi
4:55 PM99 °FPassing clouds.7 mph39%29.62 "Hg4 mi
4:25 PM99 °FPassing clouds.9 mph39%29.62 "Hg4 mi
3:55 PM100 °FPassing clouds.7 mph35%29.62 "Hg5 mi
3:25 PM100 °FScattered clouds.7 mph35%29.62 "Hg4 mi
2:55 PM100 °FScattered clouds.7 mph35%29.65 "Hg4 mi
2:25 PM100 °FScattered clouds.7 mph37%29.65 "Hg4 mi
1:55 PM100 °FPassing clouds.No wind37%29.65 "Hg4 mi
1:25 PM97 °FPassing clouds.No wind42%29.68 "Hg4 mi
1:00 PM97 °FPassing clouds.3 mph42%29.68 "Hg4 mi
12:25 PM97 °FClear.3 mph42%29.68 "Hg5 mi
11:55 AM95 °FClear.5 mph44%29.68 "Hg5 mi
11:25 AM93 °FClear.5 mph47%29.71 "Hg5 mi
Weather by CustomWeather, © 2015

See weather overviewHow to use our weather pages